RH
3 2 2 2 2 2 2 2 2 1 1 1 1 2 2 2 1 1 1 1 1 2 3 3 3 2 2 2 2 2 2 2 2 2 2 2 2 2 2 2 2 2 2 2 2 3 2 3 2 2 6 8 21 40 47 53 51 47 48 47 52 51 45 57 67 65 65 62 59 62 56 50 53 54 53 56 59 53 54 65 64 57 61 53 32 26 32 34
3 2 2 2 2 2 2 2 1 1 1 1 1 2 2 2 1 1 1 1 1 2 3 3 3 3 2 2 2 2 2 2 2 2 2 2 2 2 2 2 2 2 2 3 2 3 3 3 3 2 4 7 12 25 38 47 49 49 46 43 44 45 43 53 63 64 65 60 54 51 43 39 44 49 47 52 56 48 48 55 53 49 50 46 30 23 31 33
3 2 2 2 2 2 2 2 1 1 1 1 2 2 2 2 1 1 1 1 1 2 3 3 3 2 2 2 2 3 2 2 2 2 2 2 2 2 2 2 2 3 3 3 3 3 4 3 4 4 3 5 10 23 37 40 44 47 46 48 44 37 38 44 50 55 56 51 48 41 32 36 46 50 44 43 48 44 41 43 40 37 37 35 26 19 25 27
3 2 2 2 2 2 2 2 2 1 1 2 2 2 2 1 1 1 1 1 1 3 3 3 3 2 2 2 2 3 3 3 2 2 2 1 2 2 2 2 2 3 3 3 3 3 4 3 4 4 2 4 9 17 23 24 36 46 44 48 43 28 25 30 35 40 36 26 25 24 27 41 45 38 32 30 36 35 31 29 26 23 21 20 18 17 18 20
3 3 2 2 2 2 2 2 2 2 2 2 2 2 1 1 1 1 1 1 2 2 3 3 3 3 2 2 3 3 3 3 3 2 2 2 2 2 2 2 2 2 3 2 3 3 3 3 3 4 2 4 9 12 11 10 27 43 36 32 33 25 21 24 27 25 18 10 12 16 27 45 42 28 22 19 22 27 23 18 15 14 11 11 13 16 18 17
3 3 2 2 2 2 2 2 2 2 2 2 2 1 1 1 1 1 1 1 2 2 3 3 3 3 3 3 3 3 3 3 3 2 2 2 2 2 2 2 3 2 3 3 3 3 3 3 3 3 3 3 7 7 6 9 22 35 26 18 25 28 25 21 17 12 8 9 13 15 20 31 32 22 17 13 12 21 23 18 14 10 9 13 15 17 20 18
3 3 2 2 2 2 2 2 2 2 2 2 2 1 1 1 1 1 1 1 2 3 2 3 3 3 3 3 3 4 4 3 3 2 2 2 2 2 2 2 3 2 3 3 3 3 3 3 3 3 3 3 6 5 5 11 20 23 15 11 17 23 24 18 11 8 8 13 13 11 13 17 18 14 11 6 6 20 27 22 16 9 6 10 15 18 24 26
4 3 3 2 2 2 2 2 2 2 2 2 1 1 1 1 1 1 1 1 2 3 2 3 3 3 3 3 4 4 4 3 2 2 2 2 2 2 2 2 2 3 3 3 3 3 3 3 3 3 4 3 5 5 5 9 13 12 8 8 10 14 19 15 12 12 10 12 11 10 11 9 10 9 9 8 9 18 21 17 13 9 3 2 9 16 26 32
4 3 3 3 3 2 2 2 2 2 2 2 1 1 1 1 1 1 1 1 2 3 2 3 3 3 4 4 4 4 4 3 2 2 2 2 2 2 2 2 2 3 3 3 3 3 3 3 3 4 3 3 4 5 7 8 9 8 8 7 6 12 18 15 13 15 13 10 11 15 14 11 14 17 15 13 14 16 14 14 14 11 4 1 5 12 23 30
3 3 3 3 3 2 2 2 2 2 1 1 1 1 1 1 1 1 1 1 2 3 2 3 3 3 4 4 4 4 4 3 3 2 2 2 2 2 2 2 2 3 3 3 3 3 3 3 4 4 3 3 5 8 10 11 10 8 8 8 9 14 19 18 15 15 14 9 10 19 23 21 25 30 27 19 19 19 15 16 18 14 8 4 6 10 18 26
3 3 3 2 3 2 2 2 2 2 1 1 1 1 1 1 1 1 1 1 2 3 3 2 3 3 4 4 4 4 4 3 3 2 2 2 2 2 2 2 3 3 3 3 3 3 3 3 4 3 3 4 7 10 10 15 20 16 12 11 14 20 24 23 18 16 14 9 8 13 18 18 19 25 27 24 20 18 15 14 13 11 8 6 6 8 10 18
3 3 2 2 2 2 2 2 1 1 1 1 1 1 1 1 1 1 1 1 2 3 3 2 3 4 4 4 4 4 4 4 3 2 2 2 2 2 2 3 3 3 3 3 3 4 3 3 3 4 5 6 8 11 10 16 28 30 25 22 24 28 33 32 23 19 15 10 11 11 11 11 9 11 13 12 10 11 13 11 7 4 4 5 6 8 7 11
3 2 2 2 2 2 2 1 1 1 1 1 1 1 1 1 1 1 1 1 3 3 2 3 3 3 4 4 4 4 4 4 3 2 2 2 2 3 2 3 3 3 3 3 4 4 4 4 4 6 9 9 11 15 15 16 26 34 34 33 36 37 39 38 32 30 23 15 18 18 15 12 9 5 3 3 2 5 9 7 3 1 3 4 3 5 4 5
3 2 2 2 2 2 1 1 1 1 1 1 1 1 1 1 1 1 2 2 3 3 2 2 3 4 4 4 4 4 4 4 4 2 2 2 2 3 3 2 3 3 3 3 5 5 4 4 6 9 10 11 13 17 18 18 26 34 35 35 41 45 42 39 44 47 35 26 27 22 18 18 14 7 5 5 2 6 10 7 2 0 5 7 3 2 1 1
3 2 2 2 2 1 1 1 1 1 1 1 1 1 1 1 1 1 1 2 3 2 2 2 3 4 4 4 4 4 4 4 4 3 2 2 3 3 3 3 3 3 3 4 5 5 4 5 11 16 15 15 16 17 20 23 28 37 41 41 43 48 44 42 52 54 40 35 34 27 25 29 24 12 7 6 4 9 12 8 5 2 6 8 5 4 3 2
2 2 2 2 2 1 1 1 1 1 1 1 1 1 1 1 1 2 2 2 2 2 2 3 4 4 4 4 4 4 5 4 4 3 2 2 3 3 3 3 3 3 3 4 4 4 4 6 12 17 16 18 18 17 20 24 28 36 46 50 51 53 48 46 53 52 44 41 39 37 38 39 30 13 8 8 5 9 9 7 6 3 4 4 3 4 3 2
3 2 2 2 2 1 2 1 1 1 1 1 1 1 2 2 2 2 2 2 2 2 3 3 4 4 4 4 4 4 4 4 4 3 3 2 3 4 5 4 4 5 4 4 5 4 5 8 12 15 16 20 18 14 18 25 32 37 41 46 51 53 50 50 51 47 44 41 40 42 39 38 29 11 8 7 2 5 7 5 5 3 3 2 1 2 1 2
3 3 3 2 2 2 2 2 2 2 1 2 2 2 2 2 2 2 2 2 2 3 3 4 4 4 4 4 4 4 4 5 4 3 3 3 3 5 6 4 4 6 5 5 5 6 7 9 16 21 19 19 19 20 24 28 35 37 35 37 42 47 48 49 50 46 41 36 37 36 32 32 24 9 8 6 1 6 7 5 5 4 4 3 2 2 2 3
3 3 3 2 2 2 2 2 2 2 2 2 2 2 2 2 2 2 2 3 3 3 3 4 4 4 4 4 4 4 5 5 4 4 3 3 4 5 6 5 5 6 7 7 7 8 9 12 19 21 19 17 21 28 29 28 33 34 32 33 35 40 42 43 46 45 38 33 33 30 30 29 20 11 11 7 2 6 6 4 6 6 5 4 3 3 3 3
3 3 3 3 3 2 2 2 2 2 2 2 2 2 2 2 2 3 3 3 3 4 4 4 4 4 4 4 4 5 5 5 5 4 3 4 5 4 5 5 7 7 7 9 9 11 11 13 19 20 18 16 20 29 31 30 33 33 31 30 31 36 38 40 43 42 38 34 30 28 28 24 18 20 21 17 12 9 7 6 8 7 4 2 2 2 2 4
4 3 3 3 3 3 3 2 2 2 2 2 2 2 3 2 3 3 3 3 3 4 4 4 4 4 4 4 4 5 5 5 5 4 4 4 4 5 7 7 8 8 10 13 14 15 13 13 18 21 19 16 21 33 37 36 34 33 33 31 33 39 40 41 40 40 40 37 30 26 24 16 15 21 21 22 21 14 10 9 9 7 4 1 1 2 2 3
4 4 3 3 3 3 3 3 3 3 3 3 3 3 3 3 3 3 3 3 4 4 4 4 4 4 4 4 5 5 6 5 4 4 4 4 4 6 7 7 9 8 10 15 17 18 15 15 18 18 15 17 28 37 39 39 34 31 33 30 31 41 47 47 47 46 44 38 32 26 20 13 12 14 12 16 22 19 13 11 11 9 8 4 1 2 3 3
4 4 4 4 3 3 3 3 3 3 3 3 3 3 3 3 3 3 4 4 4 4 4 4 4 4 4 4 5 6 6 5 5 5 4 4 5 5 7 7 9 10 11 14 17 17 14 14 16 13 11 18 28 34 37 39 34 30 33 30 31 41 48 50 50 49 42 35 29 22 17 15 14 10 7 14 22 22 18 13 12 11 12 10 4 3 5 3
5 4 4 4 3 3 3 3 3 3 3 3 3 3 3 4 4 4 4 4 4 5 4 4 4 4 4 4 5 6 6 5 5 5 4 5 5 5 8 8 10 13 13 13 13 12 12 17 19 16 19 22 21 25 34 38 34 31 32 31 33 41 46 45 43 40 36 32 27 22 16 11 10 8 10 20 24 23 22 15 12 10 9 11 6 4 6 4
5 4 4 4 4 4 4 3 4 4 3 4 3 3 4 4 4 4 4 4 5 5 4 4 4 4 4 5 6 6 6 6 5 5 4 5 5 6 7 8 10 10 11 15 12 10 17 26 30 29 31 32 21 16 27 34 34 31 29 30 35 43 46 45 43 41 39 36 29 23 16 7 6 9 13 20 21 21 23 17 13 10 7 9 7 5 5 6
5 5 4 4 4 4 4 4 4 4 4 4 4 4 4 4 4 4 5 5 5 5 5 5 5 5 6 6 7 6 6 7 5 4 5 5 5 6 7 9 10 9 12 19 17 15 20 26 31 32 35 41 29 15 19 26 31 32 31 30 33 39 44 45 48 47 42 35 24 13 7 4 7 13 14 15 15 18 20 16 14 11 7 7 7 4 4 6
5 5 4 4 4 4 4 4 4 4 4 4 4 4 4 5 4 4 5 5 4 5 5 6 6 7 8 7 8 7 7 7 5 5 5 5 5 6 8 10 12 13 12 15 22 25 24 24 28 27 29 34 26 16 16 18 21 30 34 32 30 32 36 38 42 40 31 24 14 5 4 5 10 17 18 14 15 19 20 17 18 17 11 7 5 5 6 7
5 5 5 4 4 4 4 4 4 4 4 4 4 4 5 5 4 5 5 5 8 8 5 7 7 8 9 8 8 7 6 5 5 6 4 4 6 6 9 10 11 16 13 11 22 28 24 23 24 21 20 20 17 17 19 18 19 25 29 30 26 24 26 25 25 22 14 11 8 4 4 7 12 17 16 17 22 26 28 25 25 23 16 10 8 8 8 9
5 5 5 4 4 4 4 4 4 4 4 4 4 4 5 4 4 5 4 6 16 17 11 11 10 8 9 9 9 7 5 4 4 6 4 4 7 7 9 10 11 19 19 12 17 20 20 21 20 18 15 15 20 21 22 26 29 28 26 26 22 19 18 15 13 10 8 19 24 18 12 12 18 19 14 20 28 30 32 29 27 27 22 16 14 12 11 12
6 5 5 5 4 4 4 4 4 4 4 4 5 4 4 4 4 5 4 8 19 22 19 18 14 12 12 10 8 6 4 4 4 5 5 6 8 7 8 10 12 18 19 16 17 21 28 28 21 17 16 18 23 20 21 30 34 28 23 21 17 16 14 11 14 15 18 37 45 32 23 21 22 19 15 21 27 30 33 29 28 32 29 23 19 16 14 13
6 5 5 4 4 4 4 4 4 4 5 5 4 5 5 4 5 4 6 13 21 22 20 19 16 15 14 9 7 5 4 4 5 8 10 10 8 8 9 11 16 17 16 22 23 24 40 44 33 31 35 37 32 20 17 24 27 24 17 15 15 14 13 12 19 28 35 54 61 44 34 32 27 22 21 24 27 33 36 30 29 33 30 24 20 19 18 16
6 5 5 4 4 4 4 4 4 4 5 5 5 6 5 5 6 5 7 18 27 26 21 17 15 13 11 8 6 5 4 5 10 13 14 12 9 8 11 13 18 18 19 29 32 33 48 53 46 48 53 55 49 32 20 17 20 21 15 14 16 16 17 17 20 27 33 51 67 56 42 37 31 26 28 33 37 39 35 29 29 29 25 21 17 17 19 20
6 5 5 5 5 4 4 4 4 4 5 5 6 6 6 6 7 6 13 26 34 33 26 20 17 13 9 8 5 5 7 9 13 14 11 11 10 7 9 12 16 18 19 30 42 45 47 45 47 56 58 57 54 40 28 22 19 19 17 16 16 18 22 21 19 20 25 43 62 57 41 35 30 26 29 36 39 35 29 29 29 23 19 17 16 17 19 21
6 5 5 5 5 4 5 5 4 5 5 5 6 6 7 7 6 12 26 37 38 32 26 20 19 16 11 8 6 8 11 11 13 15 14 16 15 10 9 10 14 20 25 34 48 50 43 42 52 62 61 57 49 38 30 25 20 18 18 17 16 17 18 15 13 15 21 35 52 54 45 38 31 23 20 21 23 23 26 31 28 20 16 16 17 19 19 22
6 6 5 5 5 5 5 5 5 5 4 5 6 6 8 11 12 17 27 35 34 28 22 18 19 18 14 11 9 8 14 19 21 24 24 22 18 15 13 14 22 33 37 38 46 49 47 50 58 61 59 53 50 47 35 23 22 21 17 15 15 15 15 13 13 17 23 34 47 56 52 39 27 17 10 11 16 22 29 32 26 19 16 16 18 19 20 24
7 6 5 5 6 5 5 5 5 5 5 6 6 9 18 24 24 22 20 23 25 25 24 22 20 17 13 11 12 14 23 31 32 33 35 31 27 24 19 20 31 41 43 42 46 51 51 54 59 60 54 49 51 54 44 30 30 30 23 20 18 14 15 15 13 16 25 33 41 52 56 47 32 19 12 14 20 25 30 30 25 20 18 17 18 19 23 28
8 7 6 6 6 6 6 5 5 4 5 7 6 13 31 40 35 28 24 22 21 25 32 33 29 24 16 13 20 29 36 37 34 36 39 36 34 33 28 26 29 33 38 43 46 48 46 47 56 55 48 46 44 46 50 43 35 32 26 22 20 15 14 14 13 13 16 18 22 32 45 46 33 20 15 17 20 22 23 22 20 18 17 17 18 21 27 29
9 7 7 7 7 7 6 5 6 4 5 7 7 15 37 47 41 34 30 25 20 26 41 45 42 39 29 23 31 42 44 42 40 42 43 39 35 35 36 36 33 31 36 42 42 44 43 42 50 50 46 49 45 42 50 47 35 31 26 20 18 17 16 15 14 12 10 11 12 17 24 25 18 15 14 14 16 16 16 17 17 17 15 15 18 23 26 25
10 9 8 8 8 8 6 5 6 5 5 6 7 21 42 48 45 40 35 30 25 28 42 49 48 45 35 29 34 40 40 41 46 48 45 44 39 35 38 42 40 38 42 45 44 46 48 47 50 50 47 50 48 43 46 42 32 29 27 21 17 16 18 18 16 15 16 17 17 16 14 12 11 12 13 14 16 15 14 15 15 15 15 15 19 25 26 23
10 9 9 9 9 8 7 6 6 5 7 7 7 22 43 51 53 48 34 28 29 32 39 44 47 50 43 33 35 41 41 43 51 52 47 44 42 39 42 46 44 44 48 49 47 49 52 52 53 51 46 46 47 42 37 35 30 29 32 31 27 22 19 17 17 18 20 21 19 15 10 7 9 11 14 17 17 14 13 12 13 15 14 14 20 25 25 23
11 11 12 12 10 10 9 8 8 6 7 9 8 14 29 43 53 51 31 18 20 26 32 37 41 51 50 40 40 49 53 52 53 55 50 46 43 41 45 49 47 48 50 49 48 50 52 54 54 54 52 52 51 39 27 26 27 28 32 33 32 27 19 16 19 21 21 19 15 11 8 7 9 11 12 13 13 12 12 12 13 13 11 13 19 24 24 27
12 14 16 15 14 13 12 10 10 9 9 12 11 10 16 22 31 37 25 11 12 18 26 33 38 49 52 44 43 51 58 61 56 53 51 47 45 45 46 50 51 51 51 49 50 50 52 56 58 60 59 57 53 41 27 26 27 25 25 25 23 20 16 17 20 22 24 22 17 14 12 11 11 12 12 11 11 11 11 11 10 9 8 13 22 28 30 31
15 16 17 18 17 15 14 14 12 12 13 14 13 12 13 13 17 25 19 10 13 18 22 26 34 47 49 41 43 49 57 64 60 53 52 50 50 51 52 53 55 56 54 50 50 51 52 56 57 57 55 51 49 43 33 31 31 28 26 23 20 19 19 23 27 28 27 23 20 17 14 12 12 12 11 11 11 11 10 9 7 5 7 15 24 30 30 29
19 19 19 18 18 16 18 18 14 14 16 14 12 13 13 12 12 19 17 9 12 18 18 18 24 38 41 34 40 51 57 63 59 53 55 57 56 55 55 56 58 60 59 54 49 48 50 54 52 48 47 43 42 41 37 37 35 30 25 21 20 21 21 24 30 31 25 19 18 18 15 14 15 13 11 12 11 10 9 8 5 5 9 15 20 23 24 26
22 21 18 15 15 17 21 23 20 20 20 17 15 15 14 13 12 15 15 10 12 16 18 16 17 26 30 28 34 46 55 62 61 56 57 60 60 57 56 59 61 63 61 55 46 41 43 48 46 42 41 39 38 39 40 40 35 26 21 18 18 20 19 18 20 19 14 12 14 17 17 17 16 14 13 13 11 9 8 6 5 5 8 11 14 17 23 26
25 22 18 14 15 19 23 25 23 21 19 16 16 16 16 17 17 16 15 14 15 16 17 19 19 19 21 21 29 41 52 60 62 61 62 60 57 56 57 58 60 60 56 47 37 34 36 40 40 39 38 35 33 32 30 28 25 21 19 18 18 19 19 16 13 10 8 8 10 12 14 13 13 11 11 10 8 7 6 5 5 5 6 10 15 20 24 25
29 25 25 22 20 20 22 24 22 20 18 16 16 16 15 17 18 18 15 15 18 19 19 22 23 21 20 20 26 36 47 56 61 63 65 61 55 53 54 53 54 56 52 40 29 27 30 30 31 32 31 28 24 23 21 19 19 20 20 18 18 18 17 14 10 8 8 8 9 10 11 11 10 9 8 7 6 5 5 5 5 6 9 15 20 23 23 23
36 34 36 33 26 24 25 26 24 22 21 18 17 17 16 17 21 21 19 20 23 23 23 25 25 23 23 24 26 29 36 48 59 62 64 63 59 55 52 49 49 52 51 40 29 26 28 27 24 23 22 22 20 19 19 19 18 19 19 18 17 16 14 11 9 9 9 9 10 10 11 11 10 9 8 7 6 6 6 6 7 10 15 20 22 22 22 23
40 40 42 38 33 31 30 30 30 30 27 22 21 23 23 23 25 23 20 22 25 23 22 26 27 26 26 26 25 25 26 34 48 56 60 62 62 62 60 55 53 52 50 44 34 28 27 26 23 21 20 20 19 19 19 18 18 18 17 17 16 13 11 10 9 10 10 11 11 11 11 10 9 9 8 7 7 8 7 8 11 15 20 21 20 20 21 22
44 43 43 41 39 38 35 33 35 38 38 32 30 31 31 30 32 29 23 22 25 25 25 27 30 32 33 32 28 25 23 23 28 36 42 46 49 54 56 56 56 54 48 41 32 24 21 22 20 19 20 19 19 19 19 19 19 18 16 14 13 11 10 9 10 11 11 12 12 12 11 10 8 8 7 7 8 9 10 13 16 19 20 18 18 20 21 21
47 47 45 42 41 40 39 38 38 41 43 39 36 37 37 38 42 42 36 32 34 38 37 37 38 37 38 38 32 26 24 22 20 21 23 26 29 33 36 37 39 39 35 30 24 20 19 19 19 19 20 19 19 19 20 21 21 18 16 13 11 10 10 12 14 13 12 12 13 11 10 10 9 8 7 8 10 13 17 19 19 19 19 18 19 21 21 22
39 44 46 46 46 44 42 40 39 42 43 39 35 35 35 39 44 45 45 43 46 53 53 48 44 39 38 39 34 27 26 26 23 21 21 22 22 24 25 25 26 26 24 22 21 21 20 20 20 21 20 19 20 21 22 22 20 17 14 12 12 12 12 13 15 13 10 10 11 10 10 9 8 9 9 10 13 18 21 22 21 21 21 20 20 22 22 25
Wind_Speed
23 23 23 23 22 21 20 19 17 16 15 13 11 9 7 5 6 6 7 8 9 10 9 8 6 4 5 6 7 8 8 9 9 8 7 6 4 2 1 1 2 4 6 8 8 8 8 8 9 8 7 11 16 18 18 20 20 18 16 13 14 10 5 4 5 4 9 13 14 16 13 10 9 6 8 8 9 12 13 13 14 15 11 8 10 10 8 8
23 23 23 23 23 22 20 19 18 16 15 13 11 9 7 6 6 7 8 8 9 10 9 7 5 4 4 6 7 8 9 9 9 9 9 7 5 3 1 1 2 4 6 7 8 8 9 9 9 8 6 8 14 16 16 17 17 14 10 8 7 6 5 9 10 10 13 15 16 16 15 11 8 9 12 10 11 14 15 13 11 11 9 7 9 9 8 8
23 23 23 23 23 22 21 20 18 17 15 13 11 9 8 7 7 8 8 9 10 10 9 7 5 4 4 6 6 8 9 9 10 10 10 8 6 5 2 2 3 5 6 7 9 10 10 10 10 9 7 7 13 17 17 16 14 10 5 4 1 4 8 11 12 14 16 17 16 15 13 11 10 11 12 11 10 11 11 10 8 8 8 9 9 8 8 8
23 23 23 23 23 22 21 20 18 17 15 13 11 9 8 8 8 9 9 9 11 11 9 7 5 3 4 5 5 7 10 10 10 11 10 9 7 6 4 2 3 5 7 8 9 10 10 10 9 10 9 8 13 18 18 15 12 7 3 3 5 5 8 7 9 12 14 12 11 11 6 5 9 9 10 8 7 8 8 8 8 9 11 12 10 9 9 9
23 23 23 23 23 23 21 20 18 17 15 13 11 10 9 9 9 9 9 10 12 11 9 7 5 3 3 4 5 7 10 10 11 12 10 9 8 6 5 3 3 5 7 8 9 10 10 9 8 9 8 7 12 17 17 13 13 9 5 5 6 6 7 3 6 9 11 6 5 4 1 2 6 8 8 8 6 5 7 8 8 11 13 14 13 12 11 10
23 24 24 23 23 22 21 20 18 16 14 13 11 10 10 10 10 10 10 11 12 11 9 7 5 3 3 3 4 7 9 10 12 12 10 9 8 6 5 4 3 5 7 8 9 10 9 8 7 7 6 5 8 13 14 14 14 11 8 6 6 8 6 1 4 5 3 1 3 2 2 2 6 9 8 8 6 4 6 8 9 10 12 13 13 12 12 12
24 24 23 23 23 22 21 20 18 16 14 13 12 11 11 11 11 11 11 12 13 12 9 7 6 3 3 2 3 6 9 10 11 12 10 9 8 6 5 4 4 6 7 8 10 10 9 9 8 5 4 3 5 9 14 14 13 10 8 7 7 10 7 2 2 2 3 4 4 3 1 2 6 10 10 9 7 5 6 7 9 10 12 12 11 10 10 11
23 24 23 23 22 22 21 19 18 16 15 13 12 12 12 12 12 11 12 13 13 12 9 7 6 4 2 2 3 6 9 10 11 12 10 9 7 6 5 5 5 6 7 8 9 10 9 9 7 4 4 4 7 11 13 12 10 8 8 8 7 10 7 3 4 7 4 2 4 5 4 4 7 11 11 10 9 7 7 7 8 9 11 13 12 11 9 9
23 23 23 22 22 21 20 19 17 16 15 14 14 13 13 13 13 12 13 14 13 11 9 8 6 4 2 1 2 5 9 11 12 11 10 8 7 6 5 5 6 7 7 8 8 9 9 8 7 4 6 8 13 13 13 11 8 7 9 9 9 10 6 4 5 8 3 2 5 9 8 5 5 9 11 11 10 9 9 8 8 9 10 11 11 11 11 10
22 23 23 22 22 21 20 18 18 17 16 16 15 15 14 14 13 13 13 14 13 11 9 8 7 5 2 0 3 5 8 10 11 11 9 7 6 6 5 5 6 8 9 9 8 9 9 9 8 5 6 11 14 14 13 11 8 6 7 7 8 8 2 4 5 5 3 2 6 12 11 9 8 8 11 11 11 11 10 9 9 9 10 11 11 11 12 13
22 22 22 22 21 20 19 18 18 18 17 17 16 16 15 14 14 14 14 14 13 11 10 9 7 5 3 1 3 5 8 10 11 11 9 7 6 6 5 5 6 8 9 10 8 7 7 8 9 7 8 12 14 13 12 12 12 8 6 7 8 4 7 10 7 4 4 1 7 13 13 12 10 7 8 10 12 13 12 10 10 11 10 10 11 11 12 13
21 21 21 21 21 20 19 19 19 18 18 17 17 16 16 15 15 15 15 14 13 12 10 9 7 5 3 1 2 5 8 10 11 11 9 7 6 5 5 5 6 6 7 9 9 7 7 9 11 10 10 11 12 12 11 12 17 15 11 9 7 9 14 15 11 6 3 4 10 13 13 15 12 7 8 10 12 14 13 12 12 12 10 7 7 8 8 9
21 21 21 20 20 20 19 19 19 18 18 18 17 17 16 16 15 15 15 14 13 12 10 9 8 6 4 2 2 5 7 9 11 10 9 7 6 5 6 6 6 6 5 7 10 10 10 12 13 13 12 11 11 11 11 12 16 18 15 12 11 15 16 16 16 13 9 9 16 19 18 20 15 12 13 11 11 13 14 13 12 13 11 9 8 7 7 7
20 20 20 20 20 20 20 19 19 19 18 18 17 17 16 16 15 15 15 14 13 11 10 9 8 7 5 2 2 5 7 9 10 9 9 7 6 5 5 6 7 7 7 9 13 13 13 13 13 13 11 11 11 12 12 12 14 16 13 12 13 15 15 16 16 16 16 17 22 23 21 23 22 19 16 12 11 13 14 14 13 13 12 12 11 10 9 8
19 19 19 19 19 19 20 19 19 19 18 18 18 17 16 16 15 15 14 13 12 11 10 10 9 8 5 3 1 4 5 7 8 9 9 7 5 5 3 5 8 9 10 13 16 15 14 14 15 15 13 12 13 13 13 13 15 14 11 10 12 11 13 16 13 15 21 23 25 24 24 27 27 23 16 11 10 10 12 13 13 13 12 12 12 11 11 11
19 19 19 19 19 19 19 19 19 19 18 18 17 17 16 15 15 14 13 13 12 12 11 11 11 8 5 3 1 4 5 6 9 9 9 7 5 5 2 3 8 10 11 14 14 13 14 15 16 16 15 14 12 11 11 12 14 14 9 6 5 6 11 14 11 14 20 22 24 24 25 27 27 23 17 12 8 7 9 10 12 13 13 13 13 13 12 14
19 19 19 19 19 19 19 19 19 19 18 18 17 17 16 15 14 14 14 14 13 13 13 12 11 8 6 5 2 3 5 7 9 9 9 7 5 5 1 2 7 11 10 12 12 11 13 14 15 15 15 14 11 9 9 10 11 11 8 5 1 6 8 11 12 14 17 20 22 22 22 24 25 21 16 13 10 9 10 11 13 13 13 13 13 13 13 14
19 19 19 19 19 19 19 19 19 19 18 18 18 17 16 16 15 15 15 14 14 14 14 13 10 8 6 4 2 3 5 7 8 9 9 7 5 4 2 5 6 10 9 10 11 11 12 12 13 14 14 12 10 9 11 11 11 9 7 6 1 8 9 10 12 13 17 22 23 21 20 22 22 16 12 13 11 9 11 14 15 14 13 14 14 14 14 13
19 19 19 19 19 19 19 19 19 19 18 18 18 17 17 17 16 16 16 16 16 16 15 14 10 7 6 4 1 3 5 7 9 9 8 6 3 1 3 5 4 6 8 10 12 12 12 13 13 12 11 9 8 13 15 14 14 9 3 4 3 1 5 10 12 13 19 23 23 20 18 19 16 10 10 11 10 9 13 16 16 14 14 14 15 15 14 14
19 19 19 19 19 19 19 19 19 19 19 19 18 18 18 18 18 18 17 17 18 17 15 13 11 8 7 5 1 3 5 6 7 6 6 4 1 2 3 3 2 4 6 8 10 11 11 12 12 9 8 8 11 18 18 16 15 8 5 5 5 5 5 12 15 17 22 23 21 18 17 16 11 8 8 9 9 10 12 14 13 14 15 15 15 15 15 14
19 20 20 20 20 20 20 20 19 19 19 19 19 19 19 19 19 19 19 19 19 19 16 13 11 8 6 6 1 3 3 5 5 4 4 3 1 2 2 2 3 5 6 7 8 10 9 8 11 12 10 10 15 19 17 14 12 8 11 8 4 4 5 12 18 21 23 23 21 18 17 16 9 6 6 8 9 10 11 12 11 14 15 15 16 16 15 15
20 20 20 21 21 21 21 20 20 20 20 20 20 20 20 20 19 19 19 19 19 19 16 13 11 8 7 7 3 1 2 4 5 5 5 4 3 1 1 4 5 6 7 10 11 12 10 7 11 16 14 13 15 16 16 15 12 12 16 14 7 4 5 11 17 21 23 25 23 19 17 13 6 4 5 7 9 9 11 10 11 14 15 15 15 15 14 14
20 21 21 22 22 22 21 21 21 21 21 21 21 21 21 20 20 20 20 20 19 18 16 14 11 9 9 8 3 1 1 4 5 5 5 5 3 1 2 5 5 6 8 12 15 16 13 8 10 13 12 10 11 16 19 19 17 15 17 16 13 10 9 12 17 21 23 25 24 21 18 11 4 1 4 6 6 8 10 10 11 14 14 15 15 14 15 14
21 21 21 22 22 23 22 22 22 21 22 22 22 22 22 21 21 21 21 20 19 18 16 14 12 10 9 7 4 1 2 4 4 5 6 4 2 1 3 5 6 8 11 14 17 16 10 5 6 7 7 5 10 16 21 22 20 19 19 18 17 14 13 15 18 19 21 23 23 23 20 12 3 1 3 3 4 6 8 10 12 14 14 14 14 15 15 15
22 22 22 23 23 23 23 22 22 22 22 23 23 23 23 22 22 22 22 21 19 17 15 14 12 10 8 7 5 1 2 3 3 5 6 5 4 3 3 5 7 10 11 11 13 8 5 4 5 6 5 4 10 16 21 24 24 24 24 22 20 16 14 15 16 17 19 22 23 23 21 15 6 2 3 2 4 5 7 9 11 14 15 14 14 15 16 17
23 23 23 23 23 23 23 23 23 23 23 23 24 23 23 23 23 23 21 20 19 17 15 14 12 10 9 7 5 1 2 3 4 6 5 5 5 4 4 5 6 7 7 6 6 5 5 5 8 9 9 10 13 15 20 25 27 27 27 26 24 20 18 17 18 19 21 24 24 22 22 18 9 3 3 2 5 6 7 8 10 13 14 13 15 17 18 18
23 24 24 24 24 24 24 23 23 23 24 24 24 24 24 24 23 23 21 19 18 17 15 14 14 12 11 9 5 3 3 3 6 7 6 6 6 4 4 5 5 5 7 5 6 4 3 5 8 10 12 13 13 14 18 24 26 27 28 28 25 21 20 20 21 22 23 25 25 22 20 18 11 5 4 5 6 6 7 8 10 11 13 14 17 18 19 19
24 25 25 25 25 25 24 24 24 24 24 24 24 24 24 24 24 23 20 18 17 17 14 13 14 14 12 10 7 5 4 3 5 7 8 7 6 5 5 7 5 4 8 7 6 4 0 2 6 10 13 13 9 7 13 22 25 25 27 28 24 19 17 18 19 20 20 19 20 18 14 15 12 7 7 8 7 7 7 8 10 11 13 15 17 18 18 20
25 25 26 26 26 26 25 25 25 24 24 24 25 25 25 25 24 22 20 18 16 17 16 14 14 14 12 11 8 7 6 3 3 8 9 7 6 6 7 7 5 4 7 7 4 2 2 1 5 8 10 9 6 6 9 19 26 24 25 28 25 20 18 18 17 18 17 9 9 13 12 13 12 8 8 9 8 7 8 10 11 11 13 14 16 17 17 19
25 26 27 27 27 26 26 26 25 25 24 24 24 24 24 24 23 21 20 19 17 17 17 16 15 14 13 11 9 9 7 3 4 9 10 8 8 8 8 7 7 7 8 7 3 2 0 2 1 3 4 3 6 10 9 16 25 24 21 22 20 19 19 17 15 15 12 2 4 12 13 14 13 9 9 8 8 8 12 14 13 13 14 15 16 16 16 18
26 27 27 27 27 27 27 26 25 25 24 24 23 23 23 23 22 20 19 20 19 18 17 17 17 15 13 12 10 9 8 5 5 8 9 9 9 8 7 7 8 8 8 6 4 4 3 5 5 1 4 5 7 11 10 14 21 21 19 17 17 20 21 16 12 12 8 2 3 10 13 16 16 12 11 10 11 12 15 17 15 15 16 17 17 17 18 19
26 27 28 28 28 28 27 26 26 25 24 23 23 22 21 20 19 19 19 18 18 17 17 17 17 16 15 12 10 8 9 6 5 7 7 9 11 10 8 10 10 9 9 7 4 6 5 6 5 2 7 7 7 10 11 11 15 18 19 17 16 19 20 16 14 14 11 8 8 11 14 16 16 15 14 14 15 16 18 17 16 16 17 18 19 19 20 22
25 27 28 28 29 29 28 27 26 25 24 23 22 20 19 18 18 19 19 19 18 17 16 16 16 16 15 12 9 8 10 8 5 6 4 4 9 11 11 12 10 9 10 9 8 8 8 9 5 8 9 7 7 7 9 12 14 16 16 14 14 16 17 16 15 16 15 13 13 15 15 16 16 15 15 16 17 18 18 18 17 18 18 19 20 21 22 23
25 26 28 29 29 29 28 28 27 26 25 23 21 19 18 18 20 21 21 20 19 18 17 16 16 16 14 10 9 8 10 9 6 6 4 1 5 9 10 12 9 7 9 10 10 10 10 9 6 10 10 9 9 7 10 13 14 15 14 12 11 13 15 16 16 16 15 14 16 17 17 17 17 17 17 18 18 19 18 18 19 19 20 20 21 22 24 25
24 26 27 29 29 29 29 28 27 26 25 23 21 19 18 21 23 24 24 22 20 19 20 20 19 16 13 10 8 8 7 9 8 6 4 1 3 6 9 11 9 8 9 8 10 12 11 9 8 10 12 12 10 10 12 13 13 15 14 12 12 11 10 11 13 15 16 17 18 19 21 20 19 19 19 19 20 20 20 20 21 21 22 23 23 23 24 26
24 25 27 28 29 30 29 29 28 27 26 23 21 20 21 24 26 26 26 24 23 22 21 20 17 12 9 8 8 6 4 6 8 5 4 4 4 5 10 13 14 12 10 9 11 14 14 11 9 11 15 13 12 14 16 14 15 16 15 14 14 11 9 10 12 14 17 19 20 22 24 23 23 23 22 21 21 22 22 23 23 23 24 25 24 24 25 27
24 25 26 28 28 30 30 29 29 28 26 24 21 23 25 26 26 27 26 25 25 24 20 16 13 9 8 8 7 6 6 9 8 4 6 9 7 7 11 13 15 11 9 11 12 15 15 13 14 16 16 16 16 16 16 17 18 18 17 18 17 14 14 14 14 15 18 20 21 23 25 25 26 26 24 23 23 23 23 24 25 25 26 26 27 27 26 28
24 25 26 27 28 30 30 30 29 28 27 24 22 25 29 29 27 27 27 25 23 23 21 19 17 13 12 12 12 11 11 10 8 5 6 9 8 11 13 12 12 8 6 10 12 14 16 14 18 21 18 19 21 18 15 17 18 17 18 19 18 16 15 16 16 16 17 18 19 22 23 23 24 25 24 24 23 23 23 24 25 26 27 28 28 27 26 29
25 25 26 26 27 30 30 29 29 28 27 24 23 27 31 31 28 28 27 24 21 21 22 24 23 18 16 17 18 17 17 14 10 8 8 9 10 13 14 12 12 9 8 11 13 17 20 19 21 24 22 22 25 21 16 15 15 16 18 19 18 16 15 17 17 16 15 17 19 21 22 21 22 22 23 24 23 23 24 25 26 27 28 28 27 25 27 30
26 26 26 26 27 29 30 29 29 28 27 25 24 29 33 32 30 30 31 28 23 23 24 26 26 21 18 19 20 19 19 17 13 11 11 12 12 13 15 15 14 13 14 15 16 19 22 21 21 26 27 26 26 23 19 16 14 13 14 15 16 17 18 17 16 16 17 19 22 24 24 23 20 20 20 21 23 24 25 26 26 27 28 27 26 26 28 30
27 27 26 26 27 28 29 29 29 28 27 26 25 29 33 34 34 35 34 31 28 26 25 26 27 24 20 20 21 20 19 18 18 17 16 16 15 15 16 17 16 16 18 20 20 21 21 20 21 25 29 29 30 27 21 18 17 14 13 14 17 22 23 20 19 20 20 21 23 24 23 21 19 18 19 21 22 23 24 25 26 27 28 26 25 27 28 29
28 27 26 26 27 28 29 29 30 29 27 26 26 28 32 35 36 38 36 32 28 25 26 28 28 25 23 23 25 24 20 17 19 21 20 19 19 17 18 20 20 20 21 22 23 23 22 23 23 25 28 29 31 31 25 22 22 19 18 19 21 24 25 22 22 21 20 21 22 22 22 21 19 20 21 22 23 24 24 25 26 28 27 24 24 26 28 30
29 28 27 27 27 28 30 30 30 30 28 28 29 30 33 35 35 38 39 33 27 24 28 30 29 27 27 26 29 28 22 18 19 20 21 22 22 20 20 21 22 24 23 22 24 24 24 25 24 25 27 27 29 31 29 27 26 23 23 24 25 25 25 24 22 20 20 21 23 25 26 23 21 22 22 23 25 25 26 26 28 29 27 23 23 25 28 30
29 29 28 28 29 29 30 30 31 30 29 30 31 31 34 36 36 38 39 34 27 24 26 29 29 30 30 29 31 31 27 23 21 22 24 24 24 23 22 23 23 24 25 25 27 26 26 26 25 24 23 22 23 27 28 27 27 27 26 25 26 27 26 25 23 22 24 25 26 28 25 22 22 24 24 25 26 27 29 29 30 30 27 24 24 26 28 30
29 30 30 29 29 30 31 32 32 31 30 30 30 31 34 35 35 37 38 32 27 25 25 27 29 32 33 31 31 33 33 29 26 27 28 26 25 25 26 27 27 28 29 31 30 29 28 29 27 25 23 21 21 24 26 28 30 30 28 26 26 28 28 27 27 28 28 28 27 25 23 22 24 25 25 26 27 29 30 31 30 30 28 27 27 27 28 30
30 31 30 29 29 31 32 33 32 32 31 31 31 32 33 34 34 36 36 31 27 27 28 28 30 32 32 32 32 34 37 35 32 31 31 30 30 31 30 31 33 35 35 34 32 29 28 28 27 27 26 25 24 25 27 29 30 30 29 27 27 28 29 29 29 30 30 28 25 24 24 24 24 25 25 27 29 30 31 31 30 30 29 27 27 27 29 31
31 30 30 30 30 31 32 32 33 33 32 32 32 33 34 35 35 34 33 30 30 31 29 29 30 30 30 32 34 35 37 39 38 36 34 34 36 36 36 36 37 39 39 36 33 31 27 25 26 27 27 27 27 28 29 29 29 30 30 29 28 29 30 30 30 29 29 28 25 24 25 25 25 26 27 28 30 31 31 31 32 31 29 27 27 29 31 33
32 32 32 31 31 31 31 31 32 32 32 32 32 33 35 36 35 34 32 31 32 34 31 29 29 29 29 32 35 36 37 39 41 39 37 37 39 40 40 41 41 42 42 39 37 35 32 29 29 28 28 29 29 28 28 28 29 30 31 31 31 30 30 30 30 29 29 28 26 25 27 27 26 27 28 29 30 31 31 32 33 32 29 28 29 31 33 35
35 34 34 34 33 32 32 31 32 31 31 32 32 32 34 35 35 35 33 32 33 34 33 31 30 30 29 30 33 36 37 39 41 41 40 39 41 41 42 43 44 45 45 43 41 38 36 35 33 31 31 31 30 30 30 30 32 32 33 33 33 31 29 29 29 28 29 29 28 28 29 28 27 28 29 30 31 32 33 33 33 32 31 31 32 34 35 36
37 37 37 36 35 34 34 34 34 32 32 34 33 32 33 35 35 34 34 32 32 32 31 30 30 31 30 30 32 34 36 38 40 42 43 43 44 44 45 45 47 48 48 46 43 40 38 37 35 33 33 32 32 32 33 34 35 34 34 34 33 30 28 28 27 27 29 31 31 30 31 30 29 29 30 31 32 33 33 33 32 32 32 33 34 36 37 37
39 39 38 37 37 37 37 37 37 36 36 37 36 35 35 36 36 34 33 32 30 30 30 29 31 32 32 33 34 35 36 38 39 40 41 42 44 45 46 48 49 50 50 48 45 42 40 38 35 34 34 33 32 33 33 33 34 33 31 31 31 29 27 27 27 28 30 32 32 32 33 32 31 31 31 31 31 32 32 31 31 31 32 33 35 37 38 38
41 41 39 38 39 39 39 39 39 39 40 39 39 38 38 38 38 36 34 32 31 31 32 32 33 34 34 35 36 36 36 37 38 38 37 38 41 43 44 46 47 48 47 47 46 44 41 39 37 37 36 33 32 33 33 34 33 30 28 28 28 28 29 29 29 31 32 32 33 33 34 34 34 33 31 30 30 30 30 29 30 31 31 33 36 38 38 37
Wind_Direction
212 212 213 212 210 207 204 202 201 202 204 205 204 203 194 174 159 160 162 159 155 149 142 130 114 87 63 47 37 25 19 16 5 357 355 352 348 343 11 159 170 162 168 176 178 184 184 170 160 157 149 147 153 153 148 149 147 140 132 126 130 119 71 112 146 214 255 267 274 275 276 262 254 281 302 308 318 323 335 340 343 347 345 332 340 357 5 33
213 214 215 214 212 209 207 205 205 205 207 209 209 207 195 178 168 167 165 161 157 152 144 135 120 93 63 45 35 23 20 16 6 359 356 356 353 348 6 104 140 156 165 168 173 181 179 173 167 165 169 164 168 168 164 165 161 155 139 110 122 141 158 175 188 214 239 254 261 265 268 272 273 285 295 293 300 321 336 340 348 346 334 329 344 5 12 26
214 215 216 215 214 212 210 209 208 210 212 214 213 208 196 183 173 171 168 163 160 155 150 143 125 93 59 42 34 24 21 14 6 1 356 0 359 356 13 78 124 151 159 165 173 179 184 177 172 183 198 189 176 170 172 175 167 160 137 98 195 184 167 187 205 217 237 252 255 259 263 266 267 274 281 281 292 317 327 333 352 346 328 330 342 8 20 26
215 216 217 216 215 214 213 212 212 214 216 217 215 205 196 186 176 174 171 166 163 160 156 148 128 93 57 46 38 23 20 12 5 1 358 4 2 6 21 63 116 145 159 174 177 179 191 183 179 206 225 210 187 182 185 178 152 139 142 165 199 155 126 174 209 216 234 253 263 269 270 240 247 266 284 289 297 304 311 334 351 338 329 334 344 2 15 23
217 217 218 217 216 216 215 215 216 217 219 218 212 204 195 184 178 178 175 170 167 164 162 154 139 109 67 59 42 23 19 10 4 2 3 8 8 16 30 59 112 141 159 175 177 179 190 182 186 216 229 214 194 192 189 168 136 136 166 154 164 155 123 148 215 217 233 266 303 290 254 225 268 288 303 307 307 309 323 346 351 336 333 338 347 356 2 12
217 218 218 218 217 217 217 218 218 218 219 216 209 204 194 184 181 181 178 173 170 168 167 161 150 130 87 72 44 27 21 9 4 4 7 14 19 29 40 61 107 136 153 165 169 174 180 178 188 213 220 225 220 193 164 146 140 149 168 144 157 181 152 104 253 237 240 55 76 118 157 280 293 294 299 302 310 349 352 348 346 337 334 336 347 353 354 0
217 218 218 218 218 217 218 219 219 219 217 214 209 203 192 185 185 184 181 176 173 172 171 167 158 142 108 85 39 27 21 12 6 7 11 19 30 40 49 69 103 128 145 157 163 167 172 180 180 190 218 240 237 182 138 134 149 153 161 159 178 179 152 50 335 8 47 82 94 94 64 297 289 290 298 302 314 10 20 349 338 333 328 328 340 350 351 352
217 218 217 218 218 217 219 219 219 218 215 213 209 200 191 189 189 187 184 179 176 176 174 170 163 157 142 96 34 24 17 13 10 9 12 21 34 45 59 77 98 116 134 151 162 163 167 176 157 156 218 172 139 137 117 122 146 144 145 153 165 168 178 240 11 28 30 27 23 26 9 323 298 300 308 316 329 357 4 342 330 323 317 318 330 339 341 345
217 217 217 217 217 217 218 218 217 216 214 211 206 198 193 192 191 189 186 181 179 178 177 174 169 173 172 92 22 18 12 13 15 12 13 22 35 45 64 86 100 102 113 131 143 146 152 155 141 171 213 156 126 117 103 108 124 127 135 138 140 149 177 245 359 25 26 337 25 35 23 14 347 323 318 324 336 343 340 332 325 316 308 311 321 326 329 331
216 216 216 216 216 217 217 216 215 214 211 207 201 197 195 194 192 189 186 182 181 181 180 178 176 184 188 357 5 11 11 14 17 14 14 24 36 45 65 90 103 101 99 104 111 127 137 136 144 192 192 142 122 109 98 90 92 106 112 110 126 132 98 342 345 5 333 289 50 59 63 62 39 355 330 328 334 333 332 331 327 322 312 309 311 312 316 318
215 214 214 214 215 215 215 213 212 209 205 202 199 197 196 194 192 189 185 185 184 183 182 180 182 190 199 293 350 6 10 14 17 16 17 24 37 47 66 89 106 113 110 106 105 122 138 140 152 172 160 138 125 118 112 89 73 70 73 99 118 86 15 352 336 328 308 308 57 61 68 53 35 13 338 330 333 328 326 330 332 331 324 313 306 303 306 307
215 213 213 212 212 212 211 209 207 205 202 200 198 196 195 194 192 189 187 187 185 184 184 183 186 193 207 259 345 4 7 13 17 19 21 27 40 51 66 82 103 121 127 128 122 121 139 151 148 138 129 133 131 125 124 101 82 72 63 82 79 27 13 358 346 355 17 53 33 25 25 22 28 23 350 337 328 321 320 330 335 335 336 327 314 309 313 311
216 213 211 210 209 209 207 206 205 203 201 199 197 195 195 194 192 189 188 188 186 186 187 187 191 196 210 249 348 360 2 12 19 24 26 28 42 57 71 85 102 117 141 143 123 122 146 150 138 129 130 138 137 124 117 109 93 82 75 74 41 15 19 6 352 0 18 27 10 360 357 4 14 12 9 360 333 322 325 334 340 341 345 349 348 344 345 341
216 213 211 209 207 206 205 205 203 202 201 198 196 195 195 193 191 189 189 189 188 188 189 190 191 192 204 229 338 349 359 13 20 28 28 29 50 68 81 98 110 119 133 132 126 139 153 141 128 132 146 149 144 132 115 107 96 83 77 75 42 13 11 2 349 344 348 354 352 348 348 355 357 359 11 6 337 333 333 336 345 350 349 350 353 352 351 354
214 213 210 207 205 204 203 202 201 200 199 198 196 195 194 192 191 190 191 189 188 190 192 193 190 193 206 214 327 337 351 12 22 28 28 31 58 75 92 115 118 124 130 134 142 153 149 133 130 138 149 150 143 132 112 100 96 83 67 60 41 10 349 348 344 331 335 342 340 337 339 344 343 347 2 360 343 341 335 336 348 354 354 349 350 352 355 355
211 210 208 205 203 202 201 200 200 199 198 197 196 195 193 193 193 193 192 190 189 190 192 196 193 195 215 223 283 329 338 12 25 26 29 36 59 78 101 149 127 131 141 147 156 161 151 142 143 148 153 155 154 147 127 108 95 84 73 53 27 345 329 330 325 321 329 334 333 330 330 331 333 338 349 354 356 355 345 347 352 354 353 348 347 350 354 353
209 208 206 203 202 201 200 199 199 198 198 197 196 195 194 194 194 194 194 192 191 190 191 195 194 197 220 233 247 329 345 13 26 23 28 39 54 70 345 247 139 142 161 165 166 163 157 152 152 160 166 169 178 184 165 129 95 84 81 72 255 256 289 303 302 313 322 323 322 318 315 321 328 331 337 346 357 5 1 358 352 348 347 344 345 348 351 351
208 206 204 202 201 200 199 199 199 198 198 197 196 194 194 195 194 194 194 193 193 192 190 189 192 198 209 219 238 339 356 15 26 22 29 41 50 69 283 258 167 158 175 178 172 165 162 160 157 165 172 179 187 178 155 125 96 83 74 64 273 238 245 273 288 303 309 308 306 303 307 321 327 326 333 343 352 7 4 355 349 348 348 346 345 346 348 349
207 205 203 201 201 201 200 200 200 199 198 197 197 196 195 194 194 194 192 192 192 191 189 186 187 198 211 217 249 351 5 20 23 18 27 41 44 101 233 245 205 176 179 177 176 173 169 165 166 174 179 188 177 152 136 112 96 95 108 111 99 195 248 275 282 286 292 295 296 299 309 320 324 330 346 346 345 3 2 350 347 350 351 347 343 344 347 346
207 205 204 202 202 202 201 201 200 200 199 199 199 197 195 193 192 192 191 191 190 188 187 185 183 192 220 230 225 26 27 33 28 21 28 41 7 251 223 222 225 210 189 180 184 184 180 173 169 174 189 201 171 145 128 107 103 120 197 189 100 56 321 287 277 277 283 289 295 302 312 316 319 332 353 355 346 354 356 348 350 355 351 346 344 345 347 347
206 206 205 204 203 203 202 202 201 201 200 201 199 196 196 194 192 192 191 191 189 188 185 184 180 179 216 232 175 66 58 47 35 31 29 30 346 280 239 226 226 209 186 182 191 190 189 186 176 173 174 168 153 141 131 121 128 172 211 203 111 58 305 274 269 274 280 288 296 305 314 314 306 314 351 5 353 352 350 346 356 356 348 346 347 348 349 349
207 206 205 204 204 203 203 202 201 201 201 201 199 197 196 194 192 192 191 189 188 188 184 183 179 177 214 228 194 105 59 40 29 23 20 16 355 326 266 249 234 217 199 192 196 199 201 184 177 183 174 148 144 149 152 154 164 195 210 209 202 198 225 244 260 273 280 288 293 298 310 311 290 296 349 357 351 354 351 346 355 352 345 346 347 348 348 348
207 207 205 204 204 203 203 203 203 203 202 201 199 198 197 195 194 192 191 189 187 188 186 183 179 184 212 221 207 217 4 16 17 10 6 9 353 310 261 261 249 234 223 212 211 215 215 181 161 174 163 149 164 170 169 171 177 193 208 217 220 220 223 235 252 268 280 289 290 292 303 309 284 314 359 352 340 347 351 350 354 351 345 344 345 347 347 346
208 207 206 205 205 204 204 204 204 204 203 202 200 199 198 196 195 193 192 191 189 190 191 187 183 192 211 217 219 243 350 353 5 1 349 348 332 274 245 253 250 235 227 228 228 223 212 179 156 152 132 151 191 183 178 177 181 191 200 211 220 228 242 252 260 271 286 294 293 293 299 305 305 39 29 359 334 340 349 350 351 351 348 343 342 346 347 344
208 207 206 206 206 205 205 205 205 205 204 203 202 201 200 198 197 196 194 195 194 194 196 194 193 199 211 217 217 231 350 336 350 350 336 327 315 289 238 228 237 234 226 230 229 204 157 180 209 181 161 206 201 188 186 184 189 198 199 205 216 228 242 253 263 276 291 294 290 290 291 299 320 66 93 14 332 339 347 348 348 348 346 341 340 345 346 343
207 207 207 207 207 207 207 206 206 205 205 204 203 202 201 199 199 198 197 198 199 199 199 203 202 202 211 213 207 223 290 294 329 336 325 318 312 298 271 254 247 233 221 212 197 165 146 195 227 210 200 220 210 195 195 194 199 206 207 214 222 231 239 244 254 269 282 283 281 286 289 294 313 20 77 7 336 343 351 352 348 342 339 337 341 346 345 344
207 207 208 208 208 208 208 207 206 205 206 206 204 203 202 201 201 200 198 199 204 205 205 209 209 208 214 214 207 213 236 275 319 321 312 314 309 291 270 260 260 254 250 225 182 189 182 187 225 223 212 223 216 201 206 207 205 208 214 222 228 236 244 247 250 259 267 271 272 279 284 285 295 327 3 5 357 0 1 355 347 337 334 338 343 345 344 345
208 207 208 208 209 209 209 208 207 206 206 207 205 204 204 203 204 202 200 201 207 209 208 209 212 211 212 215 218 222 234 276 303 300 305 309 299 279 256 245 247 264 270 252 188 187 33 164 218 221 218 229 228 214 223 219 211 210 215 222 228 235 245 250 254 259 261 264 272 276 274 275 283 313 354 12 13 12 3 346 341 338 338 341 342 343 342 344
208 207 207 209 209 210 210 209 208 207 207 207 207 206 205 206 207 203 201 203 206 208 209 208 211 214 217 224 229 234 247 282 282 286 298 296 283 268 253 251 245 228 253 254 213 228 315 233 224 229 227 232 240 254 242 220 215 214 214 220 230 241 251 260 264 261 253 251 277 274 269 272 278 308 349 1 0 360 346 330 330 333 334 335 337 341 344 343
208 207 207 209 210 210 210 210 209 208 208 207 208 207 207 208 208 204 202 203 204 207 207 208 214 220 227 231 227 236 258 282 270 282 291 283 270 256 249 248 239 234 239 241 236 249 343 83 166 242 253 248 239 246 239 218 218 222 222 226 240 255 265 268 262 251 240 228 295 267 263 268 273 303 339 339 335 335 326 321 324 324 321 325 332 338 341 339
209 208 208 209 210 211 211 211 210 209 207 207 207 207 208 208 206 203 202 202 205 206 206 211 219 221 225 229 225 238 264 279 275 280 281 271 260 249 246 233 228 237 233 230 227 191 132 90 101 84 324 304 265 255 249 227 224 232 243 252 261 267 271 264 239 229 219 166 268 252 248 255 266 293 317 317 318 318 314 316 321 320 318 325 333 337 337 335
211 209 208 209 211 212 212 212 210 208 207 206 206 206 207 207 202 201 199 199 204 205 205 209 218 222 221 224 228 242 263 271 270 269 266 259 250 239 233 227 226 228 220 218 206 186 175 155 157 315 321 303 279 266 259 245 237 245 254 262 261 260 264 256 234 232 228 209 223 239 241 249 264 287 302 305 307 307 307 312 318 319 322 329 337 340 337 334
213 211 210 210 211 213 213 213 211 209 207 204 204 203 203 200 197 196 194 194 200 201 201 205 214 219 215 215 229 247 261 258 240 253 272 252 239 232 224 224 226 226 225 218 198 203 203 184 208 308 317 295 280 268 255 250 249 253 255 257 253 246 250 253 250 251 247 232 232 242 247 256 274 291 298 296 296 299 305 310 313 318 325 332 339 340 336 332
215 213 212 211 213 214 214 214 212 210 207 204 202 198 196 194 191 193 191 189 196 200 201 202 203 204 202 212 230 237 256 263 255 272 312 26 239 240 228 226 223 213 215 209 206 225 223 202 248 300 296 289 289 264 241 241 246 251 249 248 247 244 249 255 257 256 252 246 243 245 249 259 276 289 293 295 296 301 305 308 311 318 326 332 335 334 333 331
217 215 214 214 214 215 215 215 214 211 207 203 198 190 188 190 188 192 193 190 195 201 205 207 204 202 206 222 238 240 256 271 276 292 321 20 264 249 226 212 192 181 191 207 231 247 248 241 262 277 273 281 284 259 245 241 246 252 250 251 254 255 255 254 255 255 251 250 250 251 255 265 278 285 291 298 299 301 304 306 310 318 325 328 328 329 331 327
220 218 216 215 216 217 218 217 216 213 208 202 194 182 183 190 192 196 199 195 197 202 207 211 207 206 216 222 232 242 235 236 251 277 294 292 297 265 227 196 175 179 198 217 241 250 251 251 252 256 262 265 260 255 254 247 247 252 251 254 261 262 257 257 258 250 245 247 249 251 256 266 276 282 291 297 296 298 303 306 311 317 320 322 324 328 327 322
223 220 219 217 217 219 220 220 218 216 211 202 190 180 184 193 197 201 203 199 201 203 204 208 202 195 214 212 204 204 191 208 225 231 268 283 288 259 242 210 191 196 206 212 231 249 256 254 252 258 265 269 265 262 263 256 248 250 252 251 260 267 266 270 265 249 245 250 252 252 253 259 268 278 287 293 294 299 305 308 312 315 317 320 323 324 321 317
225 223 221 219 219 221 222 222 220 219 215 205 189 184 188 195 201 206 207 206 210 208 204 209 212 209 207 192 178 179 184 208 233 227 250 277 266 238 237 223 209 206 203 210 223 244 260 267 268 271 274 276 275 271 268 262 251 251 254 254 259 266 275 286 281 261 253 252 249 249 251 257 268 277 284 291 298 305 307 308 309 312 314 317 318 316 313 313
226 225 223 221 220 223 224 224 223 221 218 209 193 188 193 198 204 210 210 210 218 217 210 213 219 218 208 194 190 188 180 191 231 243 242 262 256 235 232 229 227 229 232 237 240 249 261 271 274 274 271 272 275 272 265 263 257 255 258 258 256 260 278 295 289 274 259 248 244 247 256 268 278 280 283 289 297 304 305 305 305 307 309 312 313 311 308 310
227 226 224 223 222 224 226 225 224 223 221 214 199 192 197 200 204 213 213 211 215 216 213 216 219 217 213 206 204 202 192 191 214 237 242 247 239 227 230 234 234 238 243 246 249 252 260 266 266 265 267 270 272 267 260 263 268 269 265 253 246 260 281 290 286 280 269 255 251 256 266 277 284 284 284 287 292 299 301 302 302 303 305 311 314 310 307 309
228 226 224 224 224 225 227 227 227 225 222 219 207 198 201 203 206 216 220 216 214 214 213 217 218 216 214 209 202 204 207 201 200 214 228 234 229 224 236 245 241 240 243 247 249 251 257 263 263 263 268 272 270 264 263 271 274 274 269 254 256 274 286 289 288 289 283 272 267 269 276 282 285 287 288 288 292 296 298 299 301 303 308 315 315 311 309 310
229 227 223 223 224 226 226 226 227 226 223 221 214 205 206 207 210 218 223 220 219 220 218 218 218 215 213 211 206 206 210 206 203 210 215 219 224 228 238 249 250 247 245 248 253 255 258 263 264 264 265 267 267 266 270 279 280 275 273 274 278 284 288 289 290 288 284 282 282 282 284 285 286 287 289 290 292 294 295 298 302 307 313 317 314 312 311 310
229 228 224 222 223 225 226 226 226 226 223 221 216 210 210 209 210 218 224 222 220 223 222 218 216 214 212 210 210 209 206 205 210 211 208 213 223 232 239 245 249 250 250 253 256 257 258 260 259 261 264 263 262 263 268 275 279 278 280 286 289 288 288 289 289 282 277 280 284 283 284 286 287 288 290 291 292 293 297 302 307 311 316 317 312 308 307 308
230 230 226 222 221 224 226 227 227 226 224 221 218 215 215 213 210 217 224 222 217 220 221 217 214 213 211 208 209 210 205 203 208 208 208 214 219 225 233 237 239 243 247 251 253 252 254 257 256 258 261 259 255 258 263 270 275 278 280 283 283 282 283 285 284 279 276 280 281 280 283 288 289 291 293 293 294 297 302 306 310 313 314 312 308 306 306 307
232 232 229 224 221 223 225 227 227 227 225 222 221 219 221 220 215 217 223 222 219 220 220 218 216 214 211 208 210 213 209 203 205 210 214 216 218 221 226 229 233 237 242 247 251 251 251 254 256 257 257 255 252 254 261 268 272 275 276 275 275 278 280 282 282 279 277 278 276 275 279 284 287 292 295 296 297 299 302 306 309 311 310 308 307 307 307 306
233 233 232 228 224 224 226 227 227 228 226 223 220 219 222 225 222 222 223 222 221 221 217 216 220 219 215 211 210 214 213 207 206 213 218 218 220 224 227 230 235 240 243 248 255 257 256 255 256 258 259 260 260 261 263 266 269 273 274 274 274 277 279 279 278 276 277 277 275 277 283 285 289 295 297 297 297 298 301 304 307 308 308 308 308 307 307 308
234 234 235 233 229 228 229 230 230 231 231 227 223 220 222 225 225 225 225 223 224 224 218 215 219 220 220 218 215 214 216 213 209 213 220 224 225 227 231 234 239 243 245 251 259 262 262 262 262 261 260 261 263 266 267 267 268 272 274 275 275 276 277 279 278 278 279 280 282 286 288 288 291 295 295 294 295 297 300 303 307 310 311 311 310 308 309 311
235 234 235 234 232 231 230 231 233 233 234 233 229 225 225 225 224 223 223 224 227 229 223 219 219 219 218 220 221 220 220 219 215 215 220 228 232 234 238 240 242 243 246 252 260 262 262 265 268 267 265 265 266 268 271 273 273 274 274 275 275 275 277 279 280 280 279 279 280 282 284 285 289 291 291 292 294 298 301 305 310 313 314 314 312 310 311 313
235 235 235 234 232 232 230 230 231 231 233 233 231 228 228 228 228 226 223 223 227 231 227 222 223 223 220 220 222 223 224 224 222 221 223 229 235 239 243 247 248 250 251 254 259 262 264 265 267 267 268 270 271 273 275 277 276 274 273 274 274 275 276 276 276 278 279 279 279 279 281 285 288 290 292 295 299 302 305 309 313 314 314 314 313 311 312 313
236 236 236 235 233 232 230 229 229 227 228 230 229 228 228 230 231 231 229 227 229 234 234 228 226 227 227 225 224 224 225 225 225 225 226 230 236 240 244 248 252 256 258 260 263 266 267 267 267 268 269 270 272 274 275 276 275 274 275 276 276 277 276 275 274 274 276 277 278 279 282 287 291 293 295 298 301 304 307 310 311 310 311 312 311 310 309 311
238 237 236 236 236 234 232 231 230 228 227 227 226 225 225 228 230 230 231 232 233 238 240 236 232 231 230 230 230 229 229 229 229 228 227 229 234 239 244 248 251 255 259 263 266 268 270 271 271 271 271 270 271 271 272 274 275 277 278 279 280 279 277 274 273 272 274 277 279 281 285 289 292 294 296 299 301 302 304 306 307 307 308 308 307 305 305 309
238 238 237 237 237 237 234 233 233 232 231 230 229 227 225 227 229 228 228 231 235 239 242 240 236 235 234 233 234 235 236 236 237 236 234 232 234 237 241 245 249 253 257 261 265 268 270 272 272 270 270 269 268 267 269 270 271 274 277 276 275 273 271 269 269 272 276 279 280 282 286 290 292 294 296 298 298 298 300 302 303 303 304 303 300 300 303 308